Sevilla, Spain

5:12 PM CEST on September 21, 2017 (GMT +0200)
San Pablo

Weather History for LEZL - September, 2012

Change the Weather History Date:

Friday, September 28, 2012

  Actual Average Record
Temperature  
Mean Temperature 66 °F -  
Max Temperature 69 °F 77 °F 98 °F (1996)
Min Temperature 62 °F 57 °F 59 °F (2010)
Growing Degree Days 16 (Base 50)    
Moisture  
Dew Point 61 °F    
Average Humidity 85    
Maximum Humidity 100    
Minimum Humidity 64    
Precipitation  
Precipitation 0.00 in - - ()
Sea Level Pressure  
Sea Level Pressure 29.83 in    
Wind  
Wind Speed 4 mph ()    
Max Wind Speed 14 mph    
Max Gust Speed -    
Visibility 5.5 miles    
Events Rain    
Averages and records for this station are not official NWS values.
T = Trace of Precipitation, MM = Missing Value Source: Averaged Metar Reports

Daily Weather History Graph

Daily Weather History Graph

Search for Another Location

Airport or City:

Trip Planner

Search our weather history database for the weather conditions in past years. The results will help you decide how hot, cold, wet, or windy it might be!

Date:

Astronomy

Sep. 28, 2012 Rise Set
Actual Time 8:16 AM CEST 8:10 PM CEST
Civil Twilight 7:50 AM CEST 8:36 PM CEST
Nautical Twilight 7:20 AM CEST 9:07 PM CEST
Astronomical Twilight 6:49 AM CEST 9:37 PM CEST
Moon 7:05 PM CEST (9/28) 6:34 AM CEST (9/28)
Length of Visible Light 12h 46m
Length of Day
11h 54m
Waxing Gibbous, 97% of the Moon is Illuminated
Sep 28
Waxing Gibbous
Sep 30
Full
Oct 8
Last Quarter
Oct 15
New
Oct 22
First Quarter

Hourly Weather History & Observations

Time (CEST) Temp. Dew Point Humidity Pressure Visibility Wind Dir Wind Speed Gust Speed Precip Events Conditions
12:30 AM 66.2 °F 66.2 °F 100% 29.80 in 6.2 mi SSE 3.5 mph - N/A   Partly Cloudy
1:00 AM 66.2 °F 66.2 °F 100% 29.83 in 6.2 mi SE 3.5 mph - N/A   Mostly Cloudy
1:30 AM 66.2 °F 66.2 °F 100% 29.83 in 6.2 mi SSE 4.6 mph - N/A   Mostly Cloudy
2:00 AM 66.2 °F 66.2 °F 100% 29.80 in 6.2 mi SSE 1.2 mph - N/A   Scattered Clouds
2:30 AM 66.2 °F 66.2 °F 100% 29.83 in 6.2 mi South 1.2 mph - N/A   Scattered Clouds
3:00 AM 68.0 °F 66.2 °F 94% 29.83 in 6.2 mi SW 4.6 mph - N/A   Scattered Clouds
4:30 AM 66.2 °F 64.4 °F 94% 29.80 in 6.2 mi West 3.5 mph - N/A   Scattered Clouds
5:00 AM 64.4 °F 64.4 °F 100% 29.80 in 6.2 mi Calm Calm - N/A   Scattered Clouds
5:30 AM 64.4 °F 64.4 °F 100% 29.80 in 3.1 mi SW 3.5 mph - N/A   Scattered Clouds
6:00 AM 64.4 °F 62.6 °F 94% 29.80 in 3.1 mi Variable 2.3 mph - N/A   Scattered Clouds
6:30 AM 64.4 °F 62.6 °F 94% 29.77 in 2.5 mi Variable 1.2 mph - N/A   Partly Cloudy
7:00 AM 64.4 °F 62.6 °F 94% 29.80 in 3.1 mi SW 8.1 mph - N/A   Partly Cloudy
7:30 AM 62.6 °F 62.6 °F 100% 29.77 in 4.3 mi Calm Calm - N/A   Unknown
8:00 AM 62.6 °F 62.6 °F 100% 29.80 in 4.3 mi Calm Calm - N/A   Unknown
8:30 AM 62.6 °F 60.8 °F 94% 29.83 in 4.3 mi South 2.3 mph - N/A   Unknown
9:00 AM 62.6 °F 60.8 °F 94% 29.83 in 3.1 mi Variable 2.3 mph - N/A Rain Light Rain
9:30 AM 62.6 °F 60.8 °F 94% 29.83 in 3.7 mi South 4.6 mph - N/A Rain Rain
10:00 AM 62.6 °F 60.8 °F 94% 29.86 in 3.7 mi Variable 1.2 mph - N/A Rain Rain
10:30 AM 62.6 °F 60.8 °F 94% 29.86 in 3.7 mi Variable 2.3 mph - N/A Rain Rain
11:00 AM 62.6 °F 60.8 °F 94% 29.83 in 6.2 mi ESE 3.5 mph - N/A   Scattered Clouds
11:30 AM 62.6 °F 60.8 °F 94% 29.86 in 6.2 mi Calm Calm - N/A   Partly Cloudy
12:00 PM 64.4 °F 59.0 °F 83% 29.86 in 6.2 mi Variable 2.3 mph - N/A   Partly Cloudy
12:30 PM 64.4 °F 60.8 °F 88% 29.86 in 6.2 mi Variable 2.3 mph - N/A   Partly Cloudy
1:00 PM 66.2 °F 60.8 °F 83% 29.86 in 6.2 mi SSW 5.8 mph - N/A   Partly Cloudy
1:30 PM 64.4 °F 60.8 °F 88% 29.86 in 6.2 mi South 5.8 mph - N/A   Scattered Clouds
2:00 PM 64.4 °F 60.8 °F 88% 29.86 in 6.2 mi South 5.8 mph - N/A   Scattered Clouds
2:30 PM 66.2 °F 60.8 °F 83% 29.86 in 6.2 mi South 4.6 mph - N/A   Scattered Clouds
3:00 PM 66.2 °F 60.8 °F 83% 29.86 in 6.2 mi SSE 6.9 mph - N/A   Scattered Clouds
3:30 PM 68.0 °F 59.0 °F 73% 29.83 in 6.2 mi South 4.6 mph - N/A   Scattered Clouds
4:00 PM 69.8 °F 59.0 °F 68% 29.83 in 6.2 mi SSW 5.8 mph - N/A   Scattered Clouds
4:30 PM 69.8 °F 59.0 °F 68% 29.83 in 6.2 mi SW 5.8 mph - N/A   Scattered Clouds
5:00 PM 69.8 °F 57.2 °F 64% 29.83 in 6.2 mi SW 8.1 mph - N/A   Scattered Clouds
5:30 PM 68.0 °F 57.2 °F 68% 29.83 in 6.2 mi SW 8.1 mph - N/A   Scattered Clouds
6:00 PM 68.0 °F 57.2 °F 68% 29.83 in 6.2 mi SSW 8.1 mph - N/A   Partly Cloudy
6:30 PM 68.0 °F 57.2 °F 68% 29.83 in 6.2 mi SSW 5.8 mph - N/A   Partly Cloudy
7:00 PM 68.0 °F 59.0 °F 73% 29.83 in 6.2 mi SSW 8.1 mph - N/A   Scattered Clouds
7:30 PM 68.0 °F 59.0 °F 73% 29.83 in 6.2 mi SSW 8.1 mph - N/A   Scattered Clouds
8:00 PM 66.2 °F 57.2 °F 73% 29.83 in 6.2 mi SW 13.8 mph - N/A   Partly Cloudy
8:30 PM 66.2 °F 55.4 °F 68% 29.83 in 6.2 mi SW 10.4 mph - N/A   Partly Cloudy
9:00 PM 66.2 °F 57.2 °F 73% 29.83 in 6.2 mi SW 8.1 mph - N/A   Partly Cloudy
9:30 PM 66.2 °F 57.2 °F 73% 29.86 in 6.2 mi SW 9.2 mph - N/A   Partly Cloudy
10:00 PM 64.4 °F 57.2 °F 77% 29.86 in 6.2 mi SW 9.2 mph - N/A   Partly Cloudy
10:30 PM 64.4 °F 57.2 °F 77% 29.86 in 6.2 mi SW 5.8 mph - N/A   Partly Cloudy
11:00 PM 64.4 °F 57.2 °F 77% 29.86 in 6.2 mi WSW 2.3 mph - N/A   Partly Cloudy
11:30 PM 64.4 °F 57.2 °F 77% 29.86 in 6.2 mi Variable 1.2 mph - N/A   Partly Cloudy